Weather History for KAPC - February, 2013

Change the Weather History Date:

Monday, February 18, 2013

  Actual Average Record
Temperature  
Mean Temperature 45 °F 50 °F  
Max Temperature 56 °F 60 °F 64 °F (2000)
Min Temperature 34 °F 39 °F 31 °F (2003)
Degree Days  
Heating Degree Days 20    
Month to date heating degree days 306  
Since 1 July heating degree days 2038  
Cooling Degree Days 0    
Month to date cooling degree days 0  
Year to date cooling degree days 0  
Moisture  
Dew Point 39 °F    
Average Humidity 74    
Maximum Humidity 92    
Minimum Humidity 55    
Precipitation  
Precipitation 0.00 in - 2.39 in (1986)
Month to date precipitation 0.03  
Year to date precipitation 0.37  
Since 1 July precipitation 8.16  
Sea Level Pressure  
Sea Level Pressure 29.97 in    
Wind  
Wind Speed 9 mph (WSW)    
Max Wind Speed 21 mph    
Max Gust Speed 36 mph    
Visibility 10 miles    
Events      
T = Trace of Precipitation, MM = Missing Value Source: NWS Daily Summary

Daily Weather History Graph

Daily Weather History Graph

Search for Another Location

Airport or City:

Trip Planner

Search our weather history database for the weather conditions in past years. The results will help you decide how hot, cold, wet, or windy it might be!

Date:

Astronomy

Feb. 18, 2013 Rise Set
Actual Time 6:55 AM PST 5:51 PM PST
Civil Twilight 6:28 AM PST 6:18 PM PST
Nautical Twilight 5:57 AM PST 6:48 PM PST
Astronomical Twilight 5:27 AM PST 7:19 PM PST
Moon 11:43 AM PST (2/18) 1:37 AM PST (2/18)
Length of Visible Light 11h 49m
Length of Day
10h 56m
First Quarter, 59% of the Moon is Illuminated
Feb 18
First Quarter
Feb 25
Full
Mar 4
Last Quarter
Mar 11
New
Mar 19
First Quarter

Hourly Weather History & Observations

Time (PST) Temp. Windchill Dew Point Humidity Pressure Visibility Wind Dir Wind Speed Gust Speed Precip Events Conditions
12:54 AM 37.0 °F - 35.1 °F 93% 29.99 in 10.0 mi Calm Calm - N/A   Clear
1:54 AM 36.0 °F 33.3 °F 34.0 °F 93% 29.99 in 10.0 mi NE 3.5 mph - N/A   Clear
2:54 AM 35.1 °F - 34.0 °F 96% 29.98 in 10.0 mi Calm Calm - N/A   Scattered Clouds
3:54 AM 39.0 °F - 37.0 °F 93% 29.96 in 10.0 mi Calm Calm - N/A   Overcast
4:54 AM 44.1 °F 42.5 °F 41.0 °F 89% 29.98 in 10.0 mi Variable 3.5 mph - N/A   Overcast
5:54 AM 46.0 °F - 43.0 °F 89% 29.98 in 10.0 mi Calm Calm - N/A   Overcast
6:54 AM 44.1 °F 41.5 °F 42.1 °F 93% 29.98 in 10.0 mi WNW 4.6 mph - N/A   Mostly Cloudy
7:37 AM 41.0 °F - 39.2 °F 93% 30.02 in 9.0 mi Calm Calm - N/A   Mostly Cloudy
7:52 AM 42.8 °F - 39.2 °F 87% 30.02 in 10.0 mi Calm Calm - N/A   Scattered Clouds
7:54 AM 42.1 °F - 39.0 °F 89% 29.99 in 10.0 mi Calm Calm - N/A   Scattered Clouds
8:54 AM 46.9 °F - 42.1 °F 83% 30.01 in 10.0 mi Calm Calm - N/A   Scattered Clouds
9:01 AM 48.2 °F - 42.8 °F 82% 30.03 in 10.0 mi Calm Calm - N/A   Overcast
9:54 AM 48.9 °F - 43.0 °F 80% 30.00 in 10.0 mi SW 6.9 mph - N/A   Overcast
10:54 AM 51.1 °F - 42.1 °F 71% 30.00 in 10.0 mi SW 10.4 mph - N/A   Overcast
11:01 AM 50.0 °F - 41.0 °F 71% 30.03 in 10.0 mi SW 10.4 mph - N/A   Overcast
11:54 AM 50.0 °F - 39.9 °F 68% 30.00 in 10.0 mi WSW 11.5 mph - N/A   Overcast
12:54 PM 53.1 °F - 41.0 °F 64% 29.96 in 10.0 mi SW 11.5 mph - N/A   Mostly Cloudy
1:54 PM 55.0 °F - 39.9 °F 57% 29.94 in 10.0 mi SSW 16.1 mph - N/A   Scattered Clouds
2:54 PM 54.0 °F - 41.0 °F 62% 29.93 in 10.0 mi SW 15.0 mph - N/A   Scattered Clouds
3:54 PM 52.0 °F - 39.0 °F 61% 29.93 in 10.0 mi WSW 17.3 mph - N/A   Scattered Clouds
4:54 PM 50.0 °F - 39.9 °F 68% 29.93 in 10.0 mi WSW 13.8 mph 23.0 mph N/A   Overcast
5:41 PM 48.2 °F - 37.4 °F 66% 29.95 in 10.0 mi WSW 17.3 mph - N/A   Mostly Cloudy
5:54 PM 48.0 °F - 39.0 °F 71% 29.93 in 10.0 mi WSW 15.0 mph 23.0 mph N/A   Overcast
6:01 PM 48.2 °F - 39.2 °F 71% 29.95 in 10.0 mi WSW 17.3 mph 23.0 mph N/A   Partly Cloudy
6:11 PM 48.2 °F - 39.2 °F 71% 29.95 in 10.0 mi WSW 13.8 mph - N/A   Overcast
6:54 PM 48.0 °F - 39.0 °F 71% 29.92 in 10.0 mi WSW 12.7 mph - N/A   Mostly Cloudy
7:54 PM 48.0 °F - 39.9 °F 74% 29.92 in 10.0 mi WSW 16.1 mph - N/A   Overcast
8:54 PM 48.0 °F - 39.9 °F 74% 29.94 in 10.0 mi WSW 11.5 mph - N/A   Mostly Cloudy
9:16 PM 46.4 °F 40.4 °F 39.2 °F 76% 29.96 in 10.0 mi West 13.8 mph - N/A   Overcast
9:35 PM 46.4 °F 41.1 °F 39.2 °F 76% 29.97 in 10.0 mi WSW 11.5 mph - N/A   Overcast
9:54 PM 46.9 °F - 39.0 °F 74% 29.94 in 10.0 mi West 12.7 mph 35.7 mph N/A   Overcast
10:54 PM 45.0 °F 38.2 °F 37.9 °F 76% 29.94 in 10.0 mi West 15.0 mph - N/A   Scattered Clouds
11:54 PM 45.0 °F 38.9 °F 37.0 °F 74% 29.94 in 10.0 mi West 12.7 mph - N/A   Partly Cloudy